^^

..:: Storico WU ::..




Lo storico viene creato da WUnderground con i dati che la stazione Meteomincio invia al loro server. L' aggiornamento viene fatto ogni 5 minuti circa, tuttavia possono esserci intervalli pi¨ ampi a causa di errori, interruzioni di servizio o problemi nell' invio tramite FTP.


Storico stazione MeteoMincio
Giorno Sommario per Novembre 04, 2022 Unità:  Inglese    Metrico   Entrambi
Giorno Settimana Mese Anno
  Max: Min: Media:
Temperatura: 64.6 °F 47.7 °F 57 °F
Dew Point: 58.5 °F 44.4 °F 51.8 °F
Umidità: 97% 56.6% 84%
Velocità vento: 18.5mph 0mph 6mph
Raffica: 29mph - -
Direzione- - South
Pressione: 29.8 in 29.6 in -
Precipitazioni: 0.15 in    
 
 
Tabulato Dati per Novembre 04, 2022
Ora Temperatura Dew Point Pressione Direzione Velocità vento Raffica Umidità Intensità pioggia (oraria) Info solare Situazione
00:04 58.6 °F 57.4 °F 29.8 in ENE 9.2 mph 17 mph 96% 0.06 in 0 W/m2
00:09 58.6 °F 57.6 °F 29.8 in ENE 11.4 mph 18.4 mph 96% 0.07 in 0 W/m2
00:14 58.6 °F 57.6 °F 29.8 in ENE 10.1 mph 18 mph 96% 0.07 in 0 W/m2
00:19 58.6 °F 57.6 °F 29.8 in ENE 9.4 mph 16 mph 96% 0.07 in 0 W/m2
00:24 58.6 °F 57.6 °F 29.8 in ENE 7.5 mph 14 mph 96% 0.07 in 0 W/m2
00:29 58.6 °F 57.6 °F 29.8 in ENE 8.7 mph 14 mph 96% 0.06 in 0 W/m2
00:34 58.6 °F 57.6 °F 29.8 in ENE 8.2 mph 14 mph 96% 0.06 in 0 W/m2
00:39 58.6 °F 57.6 °F 29.8 in ENE 8.4 mph 15 mph 96% 0.06 in 0 W/m2
00:44 58.6 °F 57.6 °F 29.8 in ENE 6.9 mph 15 mph 96% 0.06 in 0 W/m2
00:49 58.8 °F 57.7 °F 29.7 in ENE 8.7 mph 13 mph 96% 0.06 in 0 W/m2
00:54 58.8 °F 57.6 °F 29.7 in ENE 8.6 mph 13 mph 96% 0.05 in 0 W/m2
00:59 58.8 °F 57.7 °F 29.7 in ENE 9.3 mph 16.1 mph 96% 0.05 in 0 W/m2
01:04 58.8 °F 57.7 °F 29.7 in ENE 8.4 mph 16 mph 96% 0.04 in 0 W/m2
01:09 58.8 °F 57.7 °F 29.7 in ENE 8.3 mph 14 mph 96% 0.03 in 0 W/m2
01:14 58.8 °F 57.6 °F 29.7 in ENE 7 mph 14 mph 96% 0.02 in 0 W/m2
01:19 58.8 °F 57.7 °F 29.7 in ENE 8.5 mph 15 mph 96% 0.02 in 0 W/m2
01:24 58.8 °F 57.7 °F 29.7 in ENE 9.4 mph 15 mph 96% 0.02 in 0 W/m2
01:29 58.8 °F 57.7 °F 29.7 in ENE 8 mph 15 mph 96% 0.02 in 0 W/m2
01:34 58.8 °F 57.7 °F 29.7 in ENE 8.4 mph 15 mph 96% 0.02 in 0 W/m2
01:39 58.8 °F 57.7 °F 29.7 in ENE 8.9 mph 15 mph 96% 0.02 in 0 W/m2
01:44 59 °F 57.7 °F 29.7 in East 7 mph 14 mph 96% 0.01 in 0 W/m2
01:49 59 °F 57.9 °F 29.7 in ENE 8.4 mph 13 mph 96% 0.01 in 0 W/m2
01:54 59 °F 57.9 °F 29.7 in East 8.7 mph 13 mph 96% 0.01 in 0 W/m2
01:59 59.2 °F 57.9 °F 29.7 in East 7.6 mph 13 mph 96% 0.01 in 0 W/m2
02:04 59.2 °F 58.1 °F 29.7 in East 7 mph 13 mph 96% 0.01 in 0 W/m2
02:09 59.2 °F 58.1 °F 29.7 in East 6.5 mph 12 mph 96% 0.01 in 0 W/m2
02:14 59.2 °F 58.1 °F 29.7 in ENE 7.3 mph 12 mph 96% 0.01 in 0 W/m2
02:19 59.2 °F 58.1 °F 29.7 in ENE 7.8 mph 13 mph 96% 0.01 in 0 W/m2
02:24 59.4 °F 58.3 °F 29.7 in East 6.7 mph 13 mph 96% 0 in 0 W/m2
02:29 59.4 °F 58.3 °F 29.7 in East 5.1 mph 13 mph 96% 0 in 0 W/m2
02:34 59.4 °F 58.3 °F 29.7 in ENE 5.8 mph 9.2 mph 96% 0 in 0 W/m2
02:39 59.4 °F 58.3 °F 29.7 in ENE 6.5 mph 10.4 mph 96% 0 in 0 W/m2
02:44 59.4 °F 58.3 °F 29.7 in ENE 7.1 mph 11.5 mph 96% 0 in 0 W/m2
02:49 59.4 °F 58.3 °F 29.7 in ENE 8.3 mph 16.1 mph 96% 0 in 0 W/m2
02:54 59.5 °F 58.3 °F 29.7 in ENE 7.1 mph 16 mph 96% 0 in 0 W/m2
02:59 59.5 °F 58.5 °F 29.7 in ENE 8.6 mph 16.1 mph 96% 0 in 0 W/m2
03:04 59.5 °F 58.5 °F 29.7 in ENE 7 mph 16 mph 96% 0 in 0 W/m2
03:09 59.5 °F 58.5 °F 29.7 in ENE 7 mph 15 mph 96% 0.01 in 0 W/m2
03:14 59.5 °F 58.5 °F 29.7 in ENE 8.3 mph 14 mph 96% 0.01 in 0 W/m2
03:19 59.5 °F 58.5 °F 29.6 in ENE 7 mph 14 mph 96% 0.01 in 0 W/m2
03:24 59.5 °F 58.5 °F 29.6 in ENE 6.3 mph 13 mph 96% 0.01 in 0 W/m2
03:29 59.5 °F 58.5 °F 29.6 in East 6.5 mph 13 mph 96% 0.01 in 0 W/m2
03:34 59.5 °F 58.5 °F 29.6 in ENE 5.8 mph 13 mph 96% 0.01 in 0 W/m2
03:39 59.5 °F 58.3 °F 29.6 in ENE 5.8 mph 10 mph 96% 0.01 in 0 W/m2
03:44 59.4 °F 58.3 °F 29.6 in East 5.7 mph 9.2 mph 96% 0.01 in 0 W/m2
03:49 59.4 °F 58.3 °F 29.6 in ENE 6 mph 10.4 mph 96% 0.01 in 0 W/m2
03:54 59.4 °F 58.3 °F 29.6 in East 5.9 mph 10 mph 96% 0.01 in 0 W/m2
03:59 59.4 °F 58.3 °F 29.6 in East 5.7 mph 10.4 mph 96% 0.01 in 0 W/m2
04:04 59.4 °F 58.3 °F 29.6 in East 5.1 mph 10 mph 96% 0.01 in 0 W/m2
04:09 59.4 °F 58.3 °F 29.6 in ENE 5.5 mph 10.4 mph 96% 0.01 in 0 W/m2
04:14 59.4 °F 58.3 °F 29.6 in ENE 4 mph 10 mph 96% 0.01 in 0 W/m2
04:19 59.4 °F 58.3 °F 29.6 in ENE 3.5 mph 7 mph 96% 0.01 in 0 W/m2
04:24 59.4 °F 58.3 °F 29.6 in ENE 4 mph 8.1 mph 96% 0 in 0 W/m2
04:29 59.2 °F 58.1 °F 29.6 in ENE 3.8 mph 8 mph 96% 0 in 0 W/m2
04:34 59.4 °F 58.3 °F 29.6 in ENE 2.9 mph 6 mph 96% 0 in 0 W/m2
04:39 59.4 °F 58.3 °F 29.6 in ENE 3.2 mph 7 mph 96% 0 in 0 W/m2
04:44 59.4 °F 58.1 °F 29.6 in ENE 2.2 mph 7 mph 96% 0 in 0 W/m2
04:49 59.4 °F 58.3 °F 29.6 in ENE 2.7 mph 5 mph 96% 0 in 0 W/m2
04:54 59.4 °F 58.3 °F 29.6 in NNE 2.1 mph 4 mph 96% 0 in 0 W/m2
04:59 59.4 °F 58.3 °F 29.6 in North 0.5 mph 3 mph 96% 0 in 0 W/m2
05:04 59.4 °F 58.3 °F 29.6 in NE 0.4 mph 2.3 mph 96% 0 in 0 W/m2
05:09 59.4 °F 58.3 °F 29.6 in NE 0.4 mph 2.3 mph 96% 0 in 0 W/m2
05:14 59.4 °F 58.3 °F 29.6 in NE 0.1 mph 2 mph 96% 0 in 0 W/m2
05:19 59.4 °F 58.3 °F 29.6 in NE 0.6 mph 2.3 mph 96% 0 in 0 W/m2
05:24 59.4 °F 58.3 °F 29.6 in Calm   2 mph 96% 0 in 0 W/m2
05:29 59.4 °F 58.3 °F 29.6 in NE 0.1 mph 1.2 mph 96% 0 in 0 W/m2
05:34 59.4 °F 58.3 °F 29.6 in Calm   1 mph 96.2% 0 in 0 W/m2
05:39 59.4 °F 58.3 °F 29.6 in Calm     96.7% 0 in 0 W/m2
05:44 59.4 °F 58.5 °F 29.6 in NE 0.2 mph 1.2 mph 97% 0 in 0 W/m2
05:49 59.4 °F 58.5 °F 29.6 in North 0.4 mph 2.3 mph 97% 0 in 0 W/m2
05:54 59.4 °F 58.5 °F 29.6 in West 1.6 mph 3.5 mph 97% 0 in 0 W/m2
05:59 59.4 °F 58.5 °F 29.6 in WSW 1.7 mph 3.5 mph 97% 0 in 0 W/m2
06:04 59.4 °F 58.5 °F 29.6 in WSW 2 mph 4 mph 97% 0 in 0 W/m2
06:09 59.4 °F 58.5 °F 29.6 in WSW 2.1 mph 5 mph 97% 0 in 0 W/m2
06:14 59.4 °F 58.5 °F 29.6 in SW 2.3 mph 5 mph 97% 0 in 0 W/m2
06:19 59.4 °F 58.5 °F 29.6 in SW 2.9 mph 4 mph 97% 0 in 0 W/m2
06:24 59.4 °F 58.5 °F 29.6 in SW 3.7 mph 6 mph 97% 0 in 0 W/m2
06:29 59.4 °F 58.5 °F 29.6 in WSW 3.7 mph 6 mph 97% 0.01 in 0 W/m2
06:34 59.4 °F 58.5 °F 29.6 in SW 4.9 mph 9.2 mph 97% 0.02 in 0 W/m2
06:39 59.2 °F 58.3 °F 29.6 in SW 6.3 mph 12 mph 97% 0.02 in 0 W/m2
06:44 59 °F 57.9 °F 29.6 in WSW 10.7 mph 18.4 mph 96.6% 0.02 in 0 W/m2
06:49 58.1 °F 57 °F 29.6 in West 9.3 mph 18 mph 96% 0.02 in 0 W/m2
06:54 57.7 °F 56.7 °F 29.6 in West 10.6 mph 16.1 mph 96% 0.03 in 0 W/m2
06:59 57.6 °F 56.5 °F 29.6 in West 9.9 mph 16.1 mph 96% 0.03 in 0 W/m2
07:04 57.6 °F 56.5 °F 29.6 in WSW 8.5 mph 16 mph 96% 0.03 in 0 W/m2
07:09 57.4 °F 56.3 °F 29.6 in West 9.9 mph 15 mph 96% 0.04 in 0 W/m2
07:14 57.4 °F 56.3 °F 29.6 in WSW 7.8 mph 15 mph 96% 0.04 in 0 W/m2
07:19 57.4 °F 56.3 °F 29.6 in West 8.3 mph 14 mph 96% 0.04 in 0 W/m2
07:24 57.4 °F 56.3 °F 29.6 in WSW 10.1 mph 29 mph 96% 0.05 in 0 W/m2
07:29 56.5 °F 55.2 °F 29.6 in West 18 mph 29 mph 95.2% 0.06 in 0 W/m2
07:34 55.2 °F 53.8 °F 29.6 in West 18.5 mph 29 mph 95% 0.06 in 0 W/m2
07:39 54.3 °F 52.9 °F 29.6 in West 15.9 mph 29 mph 95% 0.06 in 7 W/m2
07:44 53.8 °F 52.3 °F 29.6 in West 12.9 mph 24.2 mph 95% 0.06 in 33 W/m2
07:49 53.6 °F 52.2 °F 29.6 in West 10.9 mph 24 mph 95% 0.06 in 37 W/m2
07:54 53.4 °F 51.8 °F 29.6 in West 10.7 mph 20 mph 94.2% 0.05 in 26 W/m2
07:59 53.4 °F 51.6 °F 29.6 in West 11.2 mph 19.6 mph 94% 0.05 in 21 W/m2
08:04 53.4 °F 51.8 °F 29.6 in West 11.9 mph 20 mph 94% 0.05 in 14 W/m2
08:09 53.4 °F 51.8 °F 29.6 in WSW 10.3 mph 20 mph 94% 0.05 in 26 W/m2
08:14 53.4 °F 51.8 °F 29.6 in West 10.2 mph 17 mph 93.9% 0.05 in 28 W/m2
08:19 53.4 °F 51.4 °F 29.6 in West 9.3 mph 15 mph 93% 0.05 in 26 W/m2
08:24 53.2 °F 51.3 °F 29.6 in West 7 mph 14 mph 93% 0.06 in 33 W/m2
08:29 53.1 °F 51.1 °F 29.6 in West 6.4 mph 12 mph 93% 0.05 in 46 W/m2
08:34 53.1 °F 51.1 °F 29.6 in West 5.8 mph 12 mph 93% 0.04 in 74 W/m2
08:39 53.1 °F 51.1 °F 29.6 in West 4.9 mph 11 mph 92.6% 0.04 in 90 W/m2
08:44 53.2 °F 50.9 °F 29.6 in WSW 7.3 mph 11.5 mph 91.8% 0.03 in 204 W/m2
08:49 53.8 °F 51.3 °F 29.6 in WSW 9.3 mph 14 mph 91.5% 0.02 in 221 W/m2
08:54 54 °F 51.3 °F 29.6 in WSW 10.8 mph 17.3 mph 91% 0.02 in 316 W/m2
08:59 54 °F 51.3 °F 29.6 in WSW 10.6 mph 17.3 mph 90.8% 0.02 in 338 W/m2
09:04 54.5 °F 51.8 °F 29.6 in WSW 7.7 mph 17 mph 90.6% 0.02 in 332 W/m2
09:09 54.7 °F 51.6 °F 29.6 in WSW 9.7 mph 19 mph 89.5% 0.02 in 327 W/m2
09:14 55 °F 51.6 °F 29.6 in SW 10.9 mph 20 mph 88.4% 0.02 in 301 W/m2
09:19 55.2 °F 51.6 °F 29.6 in WSW 9.6 mph 20 mph 87.8% 0.02 in 294 W/m2
09:24 55.2 °F 51.4 °F 29.6 in WSW 10.4 mph 18.4 mph 87.2% 0.01 in 306 W/m2
09:29 55.4 °F 51.4 °F 29.6 in WSW 10.3 mph 19.6 mph 86.7% 0.01 in 315 W/m2
09:34 55.8 °F 51.8 °F 29.6 in WSW 10.7 mph 20 mph 86.7% 0 in 325 W/m2
09:39 55.9 °F 51.6 °F 29.6 in SW 13 mph 20 mph 85.2% 0 in 334 W/m2
09:44 56.1 °F 51.6 °F 29.6 in WSW 10.8 mph 22 mph 84.8% 0 in 345 W/m2
09:49 56.7 °F 51.8 °F 29.6 in WSW 12.6 mph 25 mph 83.8% 0 in 357 W/m2
09:54 56.8 °F 51.8 °F 29.6 in WSW 14.2 mph 25.3 mph 83% 0 in 366 W/m2
09:59 57.2 °F 51.8 °F 29.6 in West 10.6 mph 25 mph 82.3% 0 in 376 W/m2
10:04 57.4 °F 51.4 °F 29.6 in WSW 13.4 mph 24.2 mph 80.5% 0 in 385 W/m2
10:09 57.6 °F 51.6 °F 29.6 in WSW 12.3 mph 24 mph 80.4% 0 in 390 W/m2
10:14 57.9 °F 51.6 °F 29.6 in SW 12.7 mph 22 mph 79.5% 0 in 401 W/m2
10:19 58.3 °F 51.4 °F 29.6 in WSW 12.4 mph 21 mph 78.2% 0 in 408 W/m2
10:24 58.3 °F 51.3 °F 29.6 in WSW 15.1 mph 25.3 mph 77.3% 0 in 415 W/m2
10:29 58.5 °F 51.4 °F 29.6 in WSW 13.7 mph 25 mph 77.2% 0 in 422 W/m2
10:34 58.6 °F 51.3 °F 29.6 in SW 14.5 mph 24 mph 76.6% 0 in 429 W/m2
10:39 59 °F 51.8 °F 29.6 in WSW 12.7 mph 23 mph 77.1% 0 in 438 W/m2
10:44 59.2 °F 51.4 °F 29.6 in WSW 12.7 mph 21 mph 75.5% 0 in 443 W/m2
10:49 59.4 °F 51.6 °F 29.6 in WSW 13.4 mph 22 mph 75.3% 0 in 450 W/m2
10:54 59.5 °F 51.3 °F 29.6 in WSW 14.9 mph 24.2 mph 74% 0 in 454 W/m2
10:59 59.5 °F 51.3 °F 29.6 in WSW 15 mph 24 mph 73.8% 0 in 459 W/m2
11:04 59.7 °F 51.3 °F 29.6 in WSW 13 mph 23 mph 73.5% 0 in 464 W/m2
11:09 59.9 °F 51.4 °F 29.6 in WSW 13.7 mph 23 mph 73.3% 0 in 468 W/m2
11:14 60.1 °F 50.9 °F 29.6 in WSW 15.2 mph 23 mph 71.8% 0 in 473 W/m2
11:19 60.3 °F 51.3 °F 29.6 in WSW 14 mph 23 mph 72% 0 in 476 W/m2
11:24 60.4 °F 51.3 °F 29.6 in WSW 12.9 mph 21 mph 71.9% 0 in 480 W/m2
11:29 60.8 °F 51.8 °F 29.6 in WSW 9.9 mph 21 mph 72.2% 0 in 482 W/m2
11:34 61.2 °F 51.6 °F 29.6 in WSW 11.2 mph 18.4 mph 71.1% 0 in 483 W/m2
11:39 61.2 °F 50.7 °F 29.6 in WSW 11.7 mph 19.6 mph 68.8% 0 in 487 W/m2
11:44 61.3 °F 51.3 °F 29.6 in West 10.4 mph 20 mph 69.5% 0 in 487 W/m2
11:49 61.7 °F 51.4 °F 29.6 in WSW 11.6 mph 19 mph 69.2% 0.01 in 490 W/m2
11:54 61.9 °F 50.9 °F 29.6 in West 10 mph 20 mph 67.6% 0.01 in 492 W/m2
11:59 62.2 °F 51.3 °F 29.6 in West 9.9 mph 20 mph 67.7% 0.01 in 492 W/m2
12:04 62.4 °F 51.3 °F 29.6 in West 9.7 mph 17.3 mph 66.9% 0.01 in 494 W/m2
12:09 62.4 °F 51.1 °F 29.6 in West 9.5 mph 17 mph 66.3% 0.01 in 496 W/m2
12:14 62.6 °F 51.1 °F 29.6 in WSW 9.1 mph 16.1 mph 66% 0.01 in 496 W/m2
12:19 62.6 °F 50.5 °F 29.6 in West 11.2 mph 19.6 mph 64.7% 0.01 in 494 W/m2
12:24 62.8 °F 50.5 °F 29.6 in West 11.3 mph 20 mph 64.4% 0.01 in 494 W/m2
12:29 63 °F 50.7 °F 29.6 in West 10.6 mph 18 mph 64.5% 0.01 in 494 W/m2
12:34 63 °F 50.2 °F 29.6 in West 12.2 mph 18.4 mph 63% 0.01 in 492 W/m2
12:39 63 °F 50 °F 29.6 in West 12.8 mph 19 mph 62.7% 0.01 in 492 W/m2
12:44 63 °F 50 °F 29.6 in West 10.5 mph 20 mph 62.6% 0.01 in 490 W/m2
12:49 63.3 °F 50.4 °F 29.6 in West 10.7 mph 20 mph 62.8% 0.01 in 487 W/m2
12:54 63.3 °F 50.2 °F 29.6 in West 12.3 mph 18.4 mph 62.5% 0.01 in 485 W/m2
12:59 63.1 °F 50.2 °F 29.6 in West 11.2 mph 18.4 mph 62.4% 0 in 483 W/m2
13:04 63.3 °F 50.4 °F 29.6 in West 8.9 mph 18 mph 62.8% 0 in 478 W/m2
13:09 63.7 °F 50.9 °F 29.6 in West 8.1 mph 15 mph 62.9% 0 in 475 W/m2
13:14 63.9 °F 50.2 °F 29.6 in West 10.3 mph 17.3 mph 61.3% 0 in 471 W/m2
13:19 63.7 °F 50.4 °F 29.6 in West 9.1 mph 17 mph 62% 0 in 466 W/m2
13:24 64 °F 50.9 °F 29.6 in WNW 7.8 mph 14 mph 62.1% 0 in 462 W/m2
13:29 64.2 °F 50 °F 29.6 in WNW 8.3 mph 14 mph 60.2% 0 in 459 W/m2
13:34 64.2 °F 49.6 °F 29.6 in WNW 8.7 mph 13 mph 59.2% 0 in 452 W/m2
13:39 64.4 °F 49.8 °F 29.6 in West 7.5 mph 12 mph 58.9% 0 in 445 W/m2
13:44 64.4 °F 48.9 °F 29.6 in West 8.6 mph 15 mph 57.4% 0 in 438 W/m2
13:49 64.4 °F 49.6 °F 29.6 in West 7.6 mph 15 mph 59% 0 in 434 W/m2
13:54 64.2 °F 48.9 °F 29.6 in West 9.5 mph 15 mph 57.5% 0 in 427 W/m2
13:59 64.2 °F 48.7 °F 29.6 in WNW 10.1 mph 16.1 mph 57.1% 0 in 418 W/m2
14:04 64 °F 48.7 °F 29.6 in WNW 9.1 mph 16.1 mph 57.5% 0 in 410 W/m2
14:09 64.2 °F 48.9 °F 29.6 in West 9.3 mph 16.1 mph 57.6% 0 in 401 W/m2
14:14 64 °F 48.4 °F 29.6 in West 9.1 mph 16 mph 56.6% 0 in 394 W/m2
14:19 64 °F 48.6 °F 29.6 in WNW 10.1 mph 15 mph 57.1% 0 in 387 W/m2
14:24 64.2 °F 49.3 °F 29.6 in WNW 8.3 mph 15 mph 58.2% 0 in 378 W/m2
14:29 64.2 °F 48.9 °F 29.6 in WNW 10.3 mph 16.1 mph 57.4% 0 in 369 W/m2
14:34 64 °F 48.6 °F 29.6 in WNW 9.5 mph 16 mph 57.4% 0 in 359 W/m2
14:39 64 °F 48.9 °F 29.6 in WNW 8.2 mph 14 mph 58.2% 0 in 348 W/m2
14:44 64.2 °F 49.6 °F 29.6 in WNW 6.7 mph 12 mph 59% 0 in 338 W/m2
14:49 64.6 °F 50 °F 29.6 in WNW 6.3 mph 12 mph 59.2% 0 in 327 W/m2
14:54 64.6 °F 49.6 °F 29.6 in WNW 6.3 mph 12 mph 58.3% 0 in 316 W/m2
14:59 64.2 °F 49.3 °F 29.6 in WNW 6.6 mph 10.4 mph 58.5% 0 in 306 W/m2
15:04 64.2 °F 49.6 °F 29.6 in West 7.5 mph 13 mph 59% 0 in 294 W/m2
15:09 64.2 °F 49.3 °F 29.6 in WNW 7.8 mph 13 mph 58.3% 0 in 283 W/m2
15:14 64.2 °F 49.6 °F 29.6 in WNW 6.8 mph 12 mph 59% 0 in 271 W/m2
15:19 64.2 °F 49.6 °F 29.6 in WNW 6 mph 12 mph 59.1% 0 in 255 W/m2
15:24 64 °F 50.9 °F 29.6 in NNW 4.9 mph 12 mph 62.4% 0 in 246 W/m2
15:29 63.7 °F 51.4 °F 29.6 in North 5 mph 8.1 mph 64.3% 0 in 207 W/m2
15:34 63.5 °F 51.6 °F 29.6 in NNW 5 mph 9.2 mph 65.3% 0 in 211 W/m2
15:39 63.1 °F 51.6 °F 29.6 in North 3.7 mph 9 mph 65.8% 0 in 192 W/m2
15:44 63 °F 51.3 °F 29.6 in NNE 4 mph 7 mph 65.8% 0 in 155 W/m2
15:49 62.6 °F 51.1 °F 29.6 in NNE 3.2 mph 7 mph 66% 0 in 128 W/m2
15:54 62.4 °F 51.3 °F 29.6 in NNE 3.7 mph 7 mph 66.7% 0 in 142 W/m2
15:59 62.1 °F 50.9 °F 29.6 in North 5 mph 8.1 mph 67% 0 in 116 W/m2
16:04 61.7 °F 50.7 °F 29.6 in North 4.3 mph 9.2 mph 67.2% 0 in 109 W/m2
16:09 61.3 °F 50.7 °F 29.6 in North 4.9 mph 9 mph 68% 0 in 26 W/m2
16:14 61.2 °F 50.7 °F 29.6 in NNE 4.5 mph 8 mph 68.4% 0 in 25 W/m2
16:19 60.8 °F 50.5 °F 29.6 in North 3.2 mph 7 mph 69% 0 in 25 W/m2
16:24 60.6 °F 50.5 °F 29.6 in North 3 mph 6 mph 69.4% 0 in 23 W/m2
16:29 60.3 °F 50.4 °F 29.6 in North 3.7 mph 6 mph 70% 0 in 21 W/m2
16:34 60.1 °F 50.4 °F 29.6 in NNE 2.2 mph 6 mph 70.6% 0 in 19 W/m2
16:39 59.7 °F 50.4 °F 29.6 in NNE 2.1 mph 6 mph 71.4% 0 in 18 W/m2
16:44 59.4 °F 50.4 °F 29.6 in North 3 mph 5 mph 72% 0 in 14 W/m2
16:49 59.2 °F 50.4 °F 29.6 in North 1.8 mph 5 mph 72.5% 0 in 11 W/m2
16:54 58.8 °F 50.4 °F 29.6 in NNW 1.2 mph 4 mph 73.4% 0 in 7 W/m2
16:59 58.5 °F 50.4 °F 29.6 in NW 1.6 mph 3.5 mph 74.6% 0 in 5 W/m2
17:04 58.5 °F 50.2 °F 29.6 in NW 2.1 mph 3.5 mph 74.1% 0 in 0 W/m2
17:09 58.3 °F 50 °F 29.6 in WNW 0.8 mph 3.5 mph 74% 0 in 0 W/m2
17:14 57.6 °F 49.8 °F 29.6 in NNW 0.1 mph 2 mph 75.6% 0 in 0 W/m2
17:19 56.7 °F 49.8 °F 29.6 in North 0.7 mph 2.3 mph 77.9% 0 in 0 W/m2
17:24 55.8 °F 49.5 °F 29.6 in Calm     79.5% 0 in 0 W/m2
17:29 55.6 °F 49.8 °F 29.6 in Calm     80.8% 0 in 0 W/m2
17:34 55.2 °F 49.6 °F 29.6 in Calm     81.4% 0 in 0 W/m2
17:39 54.9 °F 49.5 °F 29.6 in NNW 0.1 mph 2 mph 82.3% 0 in 0 W/m2
17:44 54.5 °F 49.5 °F 29.6 in NW 1.2 mph 2.3 mph 82.6% 0 in 0 W/m2
17:49 54.7 °F 49.5 °F 29.6 in WNW 0.9 mph 2.3 mph 83% 0 in 0 W/m2
17:54 54.7 °F 49.5 °F 29.6 in WNW 1.1 mph 2.3 mph 82.6% 0 in 0 W/m2
17:59 54.3 °F 49.1 °F 29.6 in WNW 1.1 mph 2.3 mph 82.5% 0 in 0 W/m2
18:04 54 °F 49.1 °F 29.6 in NW 1.4 mph 3 mph 83.2% 0 in 0 W/m2
18:09 54 °F 49.3 °F 29.6 in NW 2.2 mph 3.5 mph 84% 0 in 0 W/m2
18:14 54 °F 49.3 °F 29.6 in WNW 2.5 mph 4 mph 84% 0 in 0 W/m2
18:19 53.8 °F 49.1 °F 29.6 in NW 1.8 mph 4 mph 84% 0 in 0 W/m2
18:24 53.8 °F 48.9 °F 29.6 in WNW 2.1 mph 4 mph 83.2% 0 in 0 W/m2
18:29 53.8 °F 48.7 °F 29.6 in West 2.5 mph 4 mph 82.8% 0 in 0 W/m2
18:34 53.8 °F 48.6 °F 29.6 in WSW 2.5 mph 4 mph 82.3% 0 in 0 W/m2
18:39 53.4 °F 48.4 °F 29.6 in SSW 3.5 mph 5 mph 83% 0 in 0 W/m2
18:44 53.2 °F 48.2 °F 29.6 in SW 3.3 mph 6 mph 83% 0 in 0 W/m2
18:49 53.1 °F 48.2 °F 29.6 in WSW 3 mph 6 mph 83% 0 in 0 W/m2
18:54 52.9 °F 48 °F 29.6 in West 3.7 mph 5 mph 83% 0 in 0 W/m2
18:59 53.2 °F 48 °F 29.6 in West 2.8 mph 5 mph 82.2% 0 in 0 W/m2
19:04 53.4 °F 47.8 °F 29.6 in SW 2.9 mph 4 mph 81.1% 0 in 0 W/m2
19:09 53.4 °F 47.7 °F 29.6 in SSW 4.1 mph 7 mph 81% 0 in 0 W/m2
19:14 53.4 °F 47.8 °F 29.6 in SSW 3.8 mph 7 mph 81.9% 0 in 0 W/m2
19:19 53.4 °F 48 °F 29.6 in SSW 1.2 mph 6 mph 82% 0 in 0 W/m2
19:24 52.9 °F 47.8 °F 29.6 in SSW 1.9 mph 5 mph 82.6% 0 in 0 W/m2
19:29 52.7 °F 47.8 °F 29.6 in SSW 1.4 mph 5 mph 83.4% 0 in 0 W/m2
19:34 52.5 °F 47.8 °F 29.6 in SSW 0.9 mph 3.5 mph 84% 0 in 0 W/m2
19:39 52.2 °F 47.7 °F 29.6 in SSW 0.5 mph 3 mph 84.7% 0 in 0 W/m2
19:44 52.2 °F 47.8 °F 29.6 in SSW 1.3 mph 3.5 mph 85.1% 0 in 0 W/m2
19:49 52.5 °F 48 °F 29.6 in SSW 1.3 mph 5 mph 85% 0 in 0 W/m2
19:54 52.2 °F 47.8 °F 29.6 in East 1.2 mph 5 mph 85% 0 in 0 W/m2
19:59 51.6 °F 47.5 °F 29.6 in ESE 0.1 mph 5 mph 85.7% 0 in 0 W/m2
20:04 51.4 °F 47.5 °F 29.6 in ENE 0.5 mph 2 mph 86% 0 in 0 W/m2
20:09 51.3 °F 47.5 °F 29.6 in NNE 0.6 mph 2.3 mph 86.8% 0 in 0 W/m2
20:14 50.9 °F 47.3 °F 29.6 in Calm   2 mph 87% 0 in 0 W/m2
20:19 50.5 °F 46.9 °F 29.7 in NNE 0.5 mph 2.3 mph 87.6% 0 in 0 W/m2
20:24 50 °F 46.6 °F 29.7 in NE 1.8 mph 4 mph 88% 0 in 0 W/m2
20:29 49.8 °F 46.6 °F 29.7 in NE 1.2 mph 4 mph 88.8% 0 in 0 W/m2
20:34 49.6 °F 46.6 °F 29.7 in NE 1.2 mph 4 mph 89% 0 in 0 W/m2
20:39 49.6 °F 46.4 °F 29.7 in Calm   3 mph 89% 0 in 0 W/m2
20:44 49.3 °F 46.4 °F 29.7 in NE 0.1 mph 1.2 mph 89.2% 0 in 0 W/m2
20:49 49.3 °F 46.2 °F 29.7 in Calm   1 mph 89.4% 0 in 0 W/m2
20:54 49.1 °F 46.2 °F 29.7 in NE 1 mph 4 mph 90% 0 in 0 W/m2
20:59 48.9 °F 46 °F 29.7 in NE 2.4 mph 6 mph 90% 0 in 0 W/m2
21:04 48.7 °F 46 °F 29.7 in NNE 3.7 mph 6 mph 90% 0 in 0 W/m2
21:09 48.9 °F 45.9 °F 29.7 in NNE 4.2 mph 6 mph 89.2% 0 in 0 W/m2
21:14 49.1 °F 45.5 °F 29.7 in NNE 4.2 mph 6 mph 87.6% 0 in 0 W/m2
21:19 49.3 °F 45.3 °F 29.7 in NE 4.8 mph 8.1 mph 86.2% 0 in 0 W/m2
21:24 49.1 °F 45 °F 29.7 in NE 4.2 mph 8 mph 85.2% 0 in 0 W/m2
21:29 49.1 °F 44.8 °F 29.7 in NNE 3.5 mph 6 mph 85% 0 in 0 W/m2
21:34 48.9 °F 44.6 °F 29.7 in NNE 3 mph 5 mph 85% 0 in 0 W/m2
21:39 48.9 °F 44.8 °F 29.7 in NNE 2.2 mph 5 mph 85% 0 in 0 W/m2
21:44 48.9 °F 44.6 °F 29.7 in NNE 1.1 mph 4 mph 85% 0 in 0 W/m2
21:49 48.9 °F 44.6 °F 29.7 in NE 2.1 mph 3.5 mph 85% 0 in 0 W/m2
21:54 48.9 °F 44.8 °F 29.7 in NNE 1.9 mph 4 mph 85.8% 0 in 0 W/m2
21:59 48.9 °F 45 °F 29.7 in NNE 1.4 mph 3.5 mph 86% 0 in 0 W/m2
22:04 48.7 °F 44.8 °F 29.7 in NE 2 mph 3.5 mph 86% 0 in 0 W/m2
22:09 48.7 °F 44.8 °F 29.7 in NNE 1.9 mph 3.5 mph 86% 0 in 0 W/m2
22:14 48.9 °F 45 °F 29.7 in NNE 1.6 mph 3.5 mph 86% 0 in 0 W/m2
22:19 48.7 °F 44.8 °F 29.7 in NE 0.6 mph 3 mph 86.2% 0 in 0 W/m2
22:24 48.6 °F 44.8 °F 29.7 in NE 0.2 mph 2 mph 86.8% 0 in 0 W/m2
22:29 48.4 °F 44.6 °F 29.7 in NE 0.9 mph 2.3 mph 87% 0 in 0 W/m2
22:34 48.2 °F 44.6 °F 29.7 in NE 0.6 mph 2.3 mph 87.8% 0 in 0 W/m2
22:39 48 °F 44.6 °F 29.7 in Calm   2 mph 88% 0 in 0 W/m2
22:44 47.8 °F 44.4 °F 29.7 in Calm     88% 0 in 0 W/m2
22:49 48 °F 44.8 °F 29.7 in NNE 0.9 mph 2.3 mph 88.4% 0 in 0 W/m2
22:54 48 °F 45 °F 29.7 in North 1 mph 2.3 mph 89% 0 in 0 W/m2
22:59 48.2 °F 45.1 °F 29.7 in North 0.7 mph 2.3 mph 89% 0 in 0 W/m2
23:04 48.2 °F 45 °F 29.7 in Calm   2 mph 89% 0 in 0 W/m2
23:09 47.8 °F 44.8 °F 29.7 in North 0.2 mph 2.3 mph 89% 0 in 0 W/m2
23:14 47.7 °F 44.6 °F 29.7 in North 1.2 mph 2.3 mph 89% 0 in 0 W/m2
23:19 47.8 °F 44.8 °F 29.7 in NNW 2.1 mph 4 mph 89.2% 0 in 0 W/m2
23:24 48 °F 45.1 °F 29.7 in NNW 1.6 mph 4 mph 89.8% 0 in 0 W/m2
23:29 48.4 °F 45.3 °F 29.7 in NNW 1.4 mph 3.5 mph 89% 0 in 0 W/m2
23:34 48.4 °F 45.3 °F 29.7 in NNW 1.6 mph 3.5 mph 89% 0 in 0 W/m2
23:39 48.2 °F 45 °F 29.7 in NW 1.1 mph 3 mph 88.8% 0 in 0 W/m2
23:44 47.8 °F 44.6 °F 29.7 in NNW 1.7 mph 3.5 mph 88.8% 0 in 0 W/m2
23:49 47.7 °F 44.6 °F 29.7 in NNW 1.7 mph 3.5 mph 89% 0 in 0 W/m2
23:54 47.7 °F 44.6 °F 29.7 in NNW 1 mph 3 mph 89% 0 in 0 W/m2
23:59 47.8 °F 44.6 °F 29.7 in NNW 1.1 mph 3.5 mph 89% 0 in 0 W/m2
Stazione Meteorologica MeteoMincio Rivalta s/M (MN)
Con i complimenti di Weather Underground - 4 mb


GLOSSARIO METEOROLOGICO
Nube
Insieme di piccolissime particelle di acqua (liquida) o di ghiaccio, oppure dell'una e dell'altro insieme, in sospensione nell'atmosfera. Essa può anche contenere particelle d'acqua, allo stato liquido o solido, di dimensioni più grandi, e particelle provenienti, per esempio, da vapori industriali, da fumo, da polveri.

Do NOT follow this link or you will be banned from the site!